• In Deutschland
  • Länderverzeichnis
  • Für 7 Tage
  • Wassertemperatur
  • Satellitenkarten
  • Wetterkarte
  • Widgets
  • user-avatar
    Anmelden

    Stündliche Wetter Lampertheim

    Heute, 17 Oktober, Dienstag

    Zeit Temperatur Niederschläge Wind Luftdruck Luftfeuchtigkeit
    00:00 +16°C° 0 mm 1 m/S 759 mmHg 73%
    01:00 +16°C° 0 mm 1 m/S 759 mmHg 73%
    02:00 +16°C° 0 mm 1 m/S 759 mmHg 74%
    03:00 +15°C° 0 mm 1 m/S 759 mmHg 74%
    04:00 +15°C° 0 mm 1 m/S 759 mmHg 75%
    05:00 +15°C° 0 mm 1 m/S 759 mmHg 76%
    06:00 +14°C° 0 mm 1 m/S 759 mmHg 76%
    07:00 +13°C° 0 mm 1 m/S 759 mmHg 70%
    08:00 +15°C° 0 mm 1 m/S 759 mmHg 66%
    09:00 +18°C° 0 mm 1 m/S 759 mmHg 61%
    10:00 +20°C° 0 mm 1 m/S 759 mmHg 56%
    11:00 +21°C° 0 mm 1 m/S 759 mmHg 53%
    12:00 +22°C° 0 mm 1 m/S 758 mmHg 49%
    13:00 +23°C° 0 mm 1 m/S 758 mmHg 46%
    14:00 +23°C° 0 mm 1 m/S 757 mmHg 48%
    15:00 +23°C° 0 mm 1 m/S 757 mmHg 50%
    16:00 +23°C° 0 mm 1 m/S 756 mmHg 53%
    17:00 +21°C° 0 mm 1 m/S 756 mmHg 56%
    18:00 +17°C° 0 mm 0 m/S 756 mmHg 60%
    19:00 +16°C° 0 mm 0 m/S 756 mmHg 64%
    20:00 +16°C° 0 mm 1 m/S 756 mmHg 65%
    21:00 +16°C° 0 mm 1 m/S 756 mmHg 65%
    22:00 +15°C° 0 mm 1 m/S 756 mmHg 66%
    23:00 +15°C° 0 mm 1 m/S 755 mmHg 67%

    Morgen, 18 Oktober, Mittwoch

    Zeit Temperatur Niederschläge Wind Luftdruck Luftfeuchtigkeit
    00:00 +15°C° 0 mm 1 m/S 755 mmHg 67%
    01:00 +14°C° 0 mm 1 m/S 755 mmHg 68%
    02:00 +14°C° 0 mm 1 m/S 755 mmHg 68%
    03:00 +14°C° 0 mm 1 m/S 755 mmHg 69%
    04:00 +13°C° 0 mm 1 m/S 754 mmHg 69%
    05:00 +13°C° 0 mm 1 m/S 754 mmHg 69%
    06:00 +13°C° 0 mm 1 m/S 754 mmHg 70%
    07:00 +13°C° 0 mm 1 m/S 754 mmHg 70%
    08:00 +14°C° 0 mm 1 m/S 754 mmHg 65%
    09:00 +16°C° 0 mm 2 m/S 754 mmHg 60%
    10:00 +18°C° 0 mm 2 m/S 754 mmHg 55%
    11:00 +19°C° 0 mm 2 m/S 754 mmHg 52%
    12:00 +20°C° 0 mm 2 m/S 753 mmHg 49%
    13:00 +21°C° 0 mm 2 m/S 753 mmHg 46%
    14:00 +21°C° 0 mm 2 m/S 753 mmHg 49%
    15:00 +21°C° 0 mm 2 m/S 752 mmHg 51%
    16:00 +22°C° 0 mm 1 m/S 752 mmHg 54%
    17:00 +20°C° 0 mm 1 m/S 752 mmHg 58%
    18:00 +19°C° 0 mm 1 m/S 752 mmHg 62%
    19:00 +16°C° 0 mm 1 m/S 752 mmHg 66%
    20:00 +16°C° 0 mm 1 m/S 752 mmHg 67%
    21:00 +15°C° 0 mm 1 m/S 752 mmHg 67%
    22:00 +15°C° 0 mm 1 m/S 752 mmHg 68%
    23:00 +14°C° 0 mm 1 m/S 752 mmHg 69%

    übermorgen, 19 Oktober, Donnerstag

    Zeit Temperatur Niederschläge Wind Luftdruck Luftfeuchtigkeit
    00:00 +14°C° 0 mm 1 m/S 752 mmHg 69%
    01:00 +14°C° 0 mm 1 m/S 752 mmHg 70%
    02:00 +13°C° 0 mm 1 m/S 752 mmHg 70%
    03:00 +13°C° 0 mm 1 m/S 752 mmHg 71%
    04:00 +13°C° 0 mm 1 m/S 752 mmHg 72%
    05:00 +13°C° 0 mm 1 m/S 752 mmHg 72%
    06:00 +13°C° 0 mm 1 m/S 752 mmHg 72%
    07:00 +12°C° 0 mm 1 m/S 751 mmHg 72%
    08:00 +14°C° 0 mm 1 m/S 752 mmHg 67%
    09:00 +15°C° 0 mm 1 m/S 752 mmHg 63%
    10:00 +18°C° 0 mm 1 m/S 752 mmHg 58%
    11:00 +19°C° 0 mm 1 m/S 752 mmHg 55%
    12:00 +20°C° 0 mm 1 m/S 752 mmHg 52%
    13:00 +22°C° 0 mm 1 m/S 751 mmHg 49%
    14:00 +22°C° 0 mm 1 m/S 751 mmHg 51%
    15:00 +22°C° 0 mm 1 m/S 751 mmHg 53%
    16:00 +22°C° 0 mm 1 m/S 750 mmHg 56%
    17:00 +20°C° 0 mm 1 m/S 751 mmHg 60%
    18:00 +19°C° 0 mm 1 m/S 751 mmHg 65%
    19:00 +16°C° 0 mm 1 m/S 751 mmHg 69%
    20:00 +16°C° 0 mm 1 m/S 751 mmHg 71%
    21:00 +15°C° 0 mm 1 m/S 751 mmHg 73%
    22:00 +15°C° 0 mm 1 m/S 751 mmHg 75%
    23:00 +14°C° 0 mm 1 m/S 751 mmHg 76%

    20 Oktober, Freitag

    Zeit Temperatur Niederschläge Wind Luftdruck Luftfeuchtigkeit
    00:00 +14°C° 0 mm 1 m/S 752 mmHg 76%
    01:00 +14°C° 0 mm 1 m/S 752 mmHg 77%
    02:00 +14°C° 0 mm 1 m/S 752 mmHg 79%
    03:00 +13°C° 0 mm 1 m/S 752 mmHg 80%
    04:00 +13°C° 0 mm 1 m/S 752 mmHg 81%
    05:00 +13°C° 0 mm 1 m/S 752 mmHg 82%
    06:00 +13°C° 0 mm 1 m/S 752 mmHg 82%
    07:00 +13°C° 0 mm 1 m/S 752 mmHg 82%
    08:00 +14°C° 0 mm 1 m/S 752 mmHg 77%
    09:00 +15°C° 0 mm 1 m/S 752 mmHg 72%
    10:00 +18°C° 0 mm 1 m/S 753 mmHg 68%
    11:00 +18°C° 0 mm 2 m/S 753 mmHg 63%
    12:00 +19°C° 0 mm 2 m/S 753 mmHg 59%
    13:00 +20°C° 0 mm 3 m/S 753 mmHg 55%
    14:00 +20°C° 0 mm 2 m/S 753 mmHg 56%
    15:00 +20°C° 0 mm 2 m/S 752 mmHg 57%
    16:00 +21°C° 0 mm 2 m/S 752 mmHg 57%
    17:00 +19°C° 0 mm 2 m/S 752 mmHg 62%
    18:00 +18°C° 0 mm 2 m/S 753 mmHg 67%
    19:00 +16°C° 0 mm 1 m/S 753 mmHg 72%
    20:00 +16°C° 0 mm 1 m/S 753 mmHg 74%
    21:00 +15°C° 0 mm 1 m/S 753 mmHg 76%
    22:00 +15°C° 0 mm 1 m/S 754 mmHg 78%
    23:00 +15°C° 0 mm 1 m/S 753 mmHg 79%

    21 Oktober, Samstag

    Zeit Temperatur Niederschläge Wind Luftdruck Luftfeuchtigkeit
    00:00 +14°C° 0 mm 1 m/S 753 mmHg 80%
    01:00 +14°C° 0 mm 1 m/S 753 mmHg 81%
    02:00 +14°C° 0 mm 1 m/S 753 mmHg 80%
    03:00 +14°C° 0 mm 1 m/S 753 mmHg 79%
    04:00 +14°C° 0 mm 2 m/S 753 mmHg 79%
    05:00 +14°C° 0 mm 2 m/S 753 mmHg 78%
    06:00 +14°C° 0 mm 2 m/S 753 mmHg 78%
    07:00 +14°C° 0 mm 2 m/S 752 mmHg 77%
    08:00 +16°C° 0 mm 2 m/S 752 mmHg 73%
    09:00 +17°C° 0 mm 3 m/S 753 mmHg 68%
    10:00 +18°C° 0 mm 3 m/S 753 mmHg 63%
    11:00 +19°C° 0,1 mm 3 m/S 753 mmHg 64%
    12:00 +19°C° 0,1 mm 3 m/S 752 mmHg 65%
    13:00 +19°C° 0,1 mm 4 m/S 752 mmHg 66%
    14:00 +18°C° 0,2 mm 4 m/S 753 mmHg 72%
    15:00 +17°C° 0,2 mm 3 m/S 753 mmHg 77%
    16:00 +17°C° 0,2 mm 3 m/S 753 mmHg 83%
    17:00 +16°C° 0,1 mm 3 m/S 753 mmHg 83%
    18:00 +16°C° 0,1 mm 3 m/S 754 mmHg 84%
    19:00 +14°C° 0,1 mm 3 m/S 754 mmHg 84%
    20:00 +14°C° 0,1 mm 3 m/S 754 mmHg 84%
    21:00 +14°C° 0,1 mm 3 m/S 755 mmHg 83%
    22:00 +13°C° 0,1 mm 3 m/S 755 mmHg 82%
    23:00 +13°C° 0 mm 3 m/S 755 mmHg 83%

    22 Oktober, Sonntag

    Zeit Temperatur Niederschläge Wind Luftdruck Luftfeuchtigkeit
    00:00 +13°C° 0 mm 3 m/S 755 mmHg 83%
    01:00 +12°C° 0 mm 3 m/S 755 mmHg 84%
    02:00 +12°C° 0,1 mm 4 m/S 755 mmHg 83%
    03:00 +12°C° 0,1 mm 4 m/S 755 mmHg 83%
    04:00 +12°C° 0,1 mm 4 m/S 755 mmHg 82%
    05:00 +11°C° 0 mm 4 m/S 755 mmHg 83%
    06:00 +11°C° 0 mm 4 m/S 755 mmHg 83%
    07:00 +10°C° 0 mm 4 m/S 755 mmHg 83%
    08:00 +11°C° 0 mm 4 m/S 756 mmHg 80%
    09:00 +10°C° 0 mm 5 m/S 756 mmHg 77%
    10:00 +10°C° 0 mm 5 m/S 756 mmHg 74%
    11:00 +12°C° 0 mm 5 m/S 757 mmHg 70%
    12:00 +12°C° 0 mm 5 m/S 757 mmHg 67%
    13:00 +13°C° 0 mm 5 m/S 757 mmHg 63%
    14:00 +13°C° 0 mm 5 m/S 757 mmHg 64%
    15:00 +12°C° 0 mm 5 m/S 757 mmHg 64%
    16:00 +12°C° 0 mm 5 m/S 757 mmHg 65%
    17:00 +11°C° 0 mm 4 m/S 757 mmHg 68%
    18:00 +11°C° 0 mm 4 m/S 758 mmHg 72%
    19:00 +10°C° 0 mm 3 m/S 758 mmHg 76%
    20:00 +10°C° 0 mm 3 m/S 759 mmHg 77%
    21:00 +9°C° 0 mm 3 m/S 759 mmHg 79%
    22:00 +9°C° 0 mm 3 m/S 760 mmHg 81%
    23:00 +9°C° 0 mm 3 m/S 760 mmHg 82%
    Mehr zeigen